Location: Dugenta
(41.1333°N, 14.4500°E)
Time: 14:21:13
(UTC+00:00)

Cosmos 2263 Rocket - Pass Details

Date: 03 March 2021
Orbit: 825 x 847 km, 71.0° (Epoch: 20 April)

Event Time Altitude Azimuth Distance (km) Brightness Sun altitude
Rises 17:49:39 0° 329° (NNW) 3,369 5.8 -11.0°
Reaches altitude 10° 17:52:12 10° 322° (NW) 2,432 5.2 -11.5°
Maximum altitude 17:57:22 41° 254° (WSW) 1,181 3.6 -12.4°
Drops below altitude 10° 18:02:32 10° 185° (S) 2,422 4.6 -13.4°
Sets 18:05:04 0° 179° (S) 3,353 5.3 -13.9°
